Wetbulb
71.40 74.30 75.20 76.21 77.19 77.64 78.14 78.47 78.66 78.32 78.14 78.09 77.24 76.91 77.11 77.39 77.04 76.77 76.69 76.79 76.58 76.04 76.29 76.17 75.89 76.10 75.27 74.97 74.94 74.86 74.44 74.72 74.94 75.35 75.71 75.64 75.64 74.11 74.65 75.04 75.66 75.01 75.92
74.17 74.86 75.57 76.69 77.10 77.64 78.29 78.45 78.62 78.74 78.03 77.55 77.21 77.21 77.16 77.05 76.87 76.70 76.61 76.39 76.58 76.01 76.13 75.96 75.82 76.21 75.57 74.86 75.16 75.05 74.22 73.56 74.53 74.69 75.08 75.62 75.53 75.01 75.43 74.59 75.52 75.64 75.77
73.74 73.78 75.86 76.98 77.10 77.61 77.99 78.29 77.94 77.61 77.21 77.37 77.24 77.49 77.09 76.79 76.95 76.74 76.75 76.63 76.69 76.23 75.96 75.99 75.74 75.74 75.66 75.62 75.32 75.14 74.86 73.47 74.08 74.44 74.86 74.48 75.35 74.91 74.83 75.07 74.88 75.12 75.41
74.26 75.78 76.66 76.69 77.63 77.55 77.92 78.05 77.80 77.02 77.28 77.57 77.62 77.09 76.99 76.64 76.42 76.10 76.12 75.96 75.66 75.82 75.88 76.13 75.77 75.44 75.14 74.89 75.08 74.97 74.89 73.47 74.17 73.62 75.03 74.27 74.34 74.58 75.20 75.37 75.62 75.27 74.31
74.83 75.12 76.60 77.37 78.16 77.70 77.29 77.37 77.22 77.13 77.36 77.58 77.23 77.08 76.81 76.62 76.32 76.18 76.31 76.01 76.01 75.52 75.44 75.55 75.33 75.27 75.16 74.91 74.61 74.58 74.80 74.80 73.28 74.91 75.07 75.21 75.38 74.69 75.00 74.86 75.04 74.51 74.03
74.90 75.92 76.83 78.05 77.36 77.45 77.20 77.04 77.21 77.59 77.45 77.18 77.08 76.84 76.51 76.35 76.26 76.51 75.96 76.05 76.16 76.02 75.91 75.63 75.30 75.08 74.55 74.36 74.16 74.42 75.08 75.49 74.66 74.16 75.16 74.88 74.74 73.67 74.00 74.02 74.90 74.73 74.98
74.60 75.67 77.20 77.92 78.02 77.82 77.69 77.51 77.06 77.20 77.31 77.18 76.94 76.51 76.49 76.35 76.21 76.51 75.99 76.49 76.38 75.74 75.58 75.52 75.16 74.89 74.80 74.85 74.77 74.73 74.85 75.51 74.89 73.81 74.37 74.19 74.92 74.95 75.12 75.27 75.24 74.79 75.15
74.40 74.71 76.38 77.52 77.74 77.55 77.70 77.10 76.94 76.83 76.79 76.85 76.67 76.54 76.29 76.18 76.05 75.97 76.19 76.33 76.25 75.96 75.51 75.10 74.99 74.85 75.02 74.88 75.47 75.36 74.64 75.04 75.30 73.16 73.89 74.45 74.86 74.76 75.31 74.87 75.14 75.05 74.95
74.70 74.45 75.72 76.26 77.33 77.30 77.29 77.08 77.02 76.91 76.63 76.47 76.64 76.56 75.99 75.66 75.44 75.52 75.55 75.91 75.54 75.25 75.25 75.18 75.04 74.54 74.69 75.22 75.77 75.81 75.13 74.21 75.90 73.97 72.88 74.86 74.17 73.86 74.77 73.89 75.33 75.37 75.18
74.53 74.54 75.19 76.00 76.38 76.73 76.86 76.63 76.63 76.66 76.79 76.75 76.46 76.24 75.88 75.86 75.69 76.05 76.22 75.99 75.57 75.10 74.96 75.10 75.06 74.70 74.40 75.52 75.92 75.12 75.29 74.22 75.75 75.39 72.95 75.35 74.69 74.76 74.50 74.14 74.05 74.95 74.51
73.52 74.27 74.62 74.99 75.82 76.35 76.37 76.67 76.51 76.57 76.55 76.42 76.75 76.13 76.63 77.84 78.02 77.54 75.74 76.02 75.71 75.63 75.58 75.64 75.34 75.47 74.92 76.24 75.62 74.77 74.61 74.29 75.79 76.29 74.66 74.94 74.94 75.12 74.69 74.74 73.70 75.07 74.32
72.97 73.61 74.00 74.46 75.11 75.85 74.95 76.79 76.63 76.14 76.01 76.74 77.34 77.83 78.72 78.32 78.53 77.13 76.85 75.68 75.52 75.63 75.46 75.40 75.69 75.93 76.30 75.50 76.38 75.71 76.62 74.71 76.04 75.91 75.90 74.30 74.26 74.53 75.07 75.02 74.28 74.54 74.41
73.36 73.15 73.55 74.45 75.33 75.08 74.90 75.49 75.71 75.40 76.21 76.63 77.83 77.88 78.56 78.73 78.62 79.03 78.33 77.53 77.93 76.27 76.67 76.94 77.39 77.26 75.89 75.52 74.79 74.38 76.29 75.79 75.48 75.59 74.86 74.24 73.90 74.36 74.83 74.73 74.37 74.92 74.37
73.13 73.27 74.04 74.95 75.62 75.62 75.12 75.08 75.42 74.21 75.15 75.30 76.20 77.18 77.94 77.00 77.96 79.15 78.19 77.89 78.15 78.10 77.16 77.41 77.05 76.77 77.58 76.75 76.10 73.78 75.36 75.52 74.85 75.58 74.71 74.12 74.57 74.47 74.14 74.08 74.62 74.58 74.62
72.64 73.39 74.35 75.40 75.98 76.03 76.05 75.12 75.29 74.69 74.23 74.46 75.67 76.52 77.14 77.28 78.31 78.54 78.82 78.68 78.00 77.78 77.80 76.96 77.52 77.39 77.02 76.27 76.80 75.10 72.49 75.16 75.36 75.26 75.07 74.37 74.91 75.24 74.92 74.70 74.76 74.72 75.03
72.93 73.35 74.67 75.22 76.04 76.37 76.14 77.00 76.25 75.89 74.76 74.94 74.93 75.74 76.56 76.89 78.56 78.53 77.86 78.19 78.23 78.87 77.89 77.34 76.45 76.37 76.21 75.63 74.87 75.22 73.98 74.07 76.08 74.89 73.69 75.79 74.86 74.69 74.64 74.98 74.91 74.78 74.92
72.68 73.56 73.98 74.96 76.00 76.70 76.78 77.08 76.54 75.34 74.72 74.15 74.11 75.84 76.50 77.18 78.13 79.32 78.67 77.55 78.33 78.38 77.59 77.92 77.39 77.24 74.02 73.32 72.10 74.87 74.98 74.70 75.52 74.43 74.68 74.44 74.57 74.96 74.88 74.22 74.39 74.97 75.01
73.03 73.32 74.35 74.59 75.43 76.44 76.97 76.82 75.70 74.92 74.56 73.99 74.20 75.42 76.67 77.31 78.29 78.80 77.65 78.19 78.64 78.39 77.74 76.53 76.52 75.26 73.08 71.72 72.90 74.10 73.72 74.41 73.99 75.01 75.04 73.89 74.05 74.21 74.48 74.96 74.82 74.49 74.30
73.23 73.43 74.11 75.00 74.95 75.75 76.91 76.80 76.25 76.23 74.89 74.11 74.85 75.82 77.41 78.13 78.61 78.82 77.53 78.75 79.60 78.07 77.55 77.60 76.23 76.02 73.43 72.97 71.50 73.15 72.80 72.83 72.19 71.71 73.26 74.68 74.77 73.88 74.87 75.54 75.45 74.84 73.50
73.42 73.98 74.54 74.83 75.53 76.34 76.10 76.57 75.40 74.56 74.16 74.21 75.34 76.25 78.25 78.80 79.28 79.20 78.11 78.47 78.17 76.85 76.98 77.66 75.54 76.39 74.71 73.53 69.84 70.10 72.49 72.83 73.57 72.46 72.85 74.06 74.48 75.19 74.85 76.30 74.98 74.42 74.86
73.62 73.83 74.43 74.73 77.05 76.07 75.06 74.07 73.34 72.57 73.65 74.23 76.02 77.90 78.90 79.27 79.46 79.79 78.10 77.91 77.98 76.67 75.90 76.21 75.87 74.76 74.78 74.60 68.91 68.65 70.36 71.69 71.58 72.42 72.92 72.66 72.58 73.24 73.91 74.29 75.11 74.67 74.55
73.22 74.16 75.14 75.45 76.71 76.81 75.62 75.27 74.36 73.91 73.67 74.88 76.50 77.96 79.09 78.83 79.51 79.27 79.80 77.71 78.49 77.12 76.24 76.10 75.48 75.02 74.48 72.93 68.77 69.31 65.76 67.74 69.91 72.01 74.20 72.51 72.16 72.12 71.76 72.39 73.26 74.82 75.52
72.61 73.79 74.65 76.53 76.99 77.10 77.52 75.65 74.87 74.50 74.75 74.40 75.72 76.57 78.38 78.93 79.15 79.64 79.05 78.61 78.43 77.34 75.85 76.43 76.18 75.38 72.48 73.19 71.39 69.10 65.58 65.23 66.90 70.07 72.01 72.51 72.35 71.78 71.28 71.91 72.93 74.33 75.30
72.49 74.01 75.46 76.83 77.25 77.42 77.32 76.37 76.89 72.32 71.76 73.37 75.80 76.35 76.80 78.55 78.50 78.94 79.01 78.60 79.32 77.38 77.36 76.77 76.59 75.82 74.77 70.81 70.30 70.28 72.05 72.03 65.46 65.23 69.53 71.39 72.00 71.69 72.75 71.71 71.98 72.53 71.90
73.45 74.15 75.08 76.75 77.78 78.08 77.84 77.97 75.77 75.26 72.78 74.52 75.82 78.90 79.92 79.82 78.86 78.26 78.77 78.35 78.56 78.26 78.23 78.07 76.92 76.52 74.36 72.13 68.37 69.68 70.41 69.81 70.92 67.37 66.12 67.98 70.44 71.32 71.93 71.24 71.60 71.57 71.64
73.65 74.46 75.12 76.73 78.81 78.31 77.78 76.99 78.50 77.58 76.18 74.95 76.68 75.84 76.33 76.73 77.15 78.67 78.51 78.86 79.37 78.97 78.41 78.10 77.87 76.91 75.76 74.36 70.17 70.55 68.78 67.68 67.46 67.73 66.47 68.64 68.52 70.20 71.26 71.71 71.34 71.26 71.68
MSLP
1016.17 1015.93 1015.85 1015.76 1015.78 1015.83 1016.01 1016.12 1016.26 1016.46 1016.64 1016.86 1017.13 1017.33 1017.50 1017.60 1017.72 1017.88 1017.92 1017.91 1017.97 1018.10 1018.10 1018.20 1018.39 1018.44 1018.53 1018.61 1018.61 1018.63 1018.73 1018.76 1018.78 1018.80 1018.93 1018.93 1018.90 1018.95 1018.92 1018.78 1018.52 1018.19 1019.16
1015.43 1015.63 1015.88 1016.01 1016.08 1016.14 1016.29 1016.47 1016.66 1016.81 1017.05 1017.20 1017.42 1017.61 1017.77 1017.89 1018.04 1018.10 1018.06 1018.12 1018.15 1018.26 1018.32 1018.41 1018.57 1018.57 1018.65 1018.72 1018.75 1018.86 1018.90 1018.98 1018.97 1018.99 1018.93 1019.02 1019.15 1019.23 1019.19 1019.10 1018.64 1019.08 1019.35
1015.24 1015.96 1015.86 1016.18 1016.39 1016.46 1016.64 1016.80 1016.99 1017.23 1017.38 1017.53 1017.77 1017.87 1018.03 1018.14 1018.20 1018.25 1018.29 1018.33 1018.34 1018.45 1018.56 1018.56 1018.66 1018.76 1018.78 1018.85 1018.89 1019.03 1019.04 1019.17 1019.20 1019.16 1018.89 1018.32 1018.85 1019.46 1019.39 1019.39 1019.47 1019.66 1019.70
1015.02 1015.38 1015.94 1016.45 1016.55 1016.71 1016.87 1017.08 1017.31 1017.53 1017.66 1017.84 1017.99 1018.19 1018.34 1018.43 1018.48 1018.55 1018.57 1018.58 1018.61 1018.64 1018.64 1018.70 1018.83 1018.87 1018.89 1018.98 1019.07 1019.19 1019.21 1019.32 1019.35 1019.11 1018.27 1018.00 1018.22 1019.65 1019.73 1019.76 1019.81 1019.87 1019.98
1014.74 1015.57 1016.08 1016.48 1016.64 1016.93 1017.11 1017.35 1017.60 1017.78 1017.95 1018.09 1018.27 1018.45 1018.57 1018.67 1018.74 1018.74 1018.76 1018.76 1018.80 1018.85 1018.86 1018.93 1018.98 1018.99 1019.02 1019.11 1019.17 1019.28 1019.43 1019.51 1019.51 1018.81 1018.37 1018.33 1018.11 1019.81 1020.03 1020.08 1020.10 1020.16 1020.11
1014.50 1015.04 1016.36 1016.53 1016.82 1017.04 1017.34 1017.58 1017.77 1017.96 1018.12 1018.31 1018.46 1018.62 1018.74 1018.84 1018.87 1018.91 1018.94 1018.95 1018.96 1019.03 1019.08 1019.10 1019.15 1019.17 1019.15 1019.17 1019.15 1019.23 1019.43 1019.56 1019.39 1018.78 1018.70 1018.98 1018.91 1020.04 1020.20 1020.15 1020.35 1020.37 1020.53
1014.21 1015.00 1016.08 1016.73 1016.94 1017.26 1017.54 1017.75 1017.97 1018.19 1018.33 1018.52 1018.69 1018.80 1018.94 1018.99 1019.05 1019.09 1019.15 1019.15 1019.12 1019.16 1019.17 1019.23 1019.35 1019.32 1019.24 1019.22 1019.14 1019.23 1019.30 1019.39 1018.70 1018.95 1018.76 1018.85 1019.52 1020.35 1020.41 1020.51 1020.59 1020.78 1020.85
1014.11 1014.84 1016.00 1016.92 1017.16 1017.46 1017.69 1017.94 1018.12 1018.40 1018.52 1018.71 1018.89 1018.99 1019.08 1019.15 1019.24 1019.26 1019.27 1019.26 1019.22 1019.24 1019.30 1019.40 1019.47 1019.42 1019.36 1019.37 1019.40 1019.41 1019.39 1019.22 1018.79 1019.03 1019.05 1019.10 1020.27 1020.56 1020.63 1020.73 1020.81 1020.98 1021.15
1014.13 1014.75 1015.78 1016.42 1017.12 1017.57 1017.88 1018.09 1018.33 1018.49 1018.62 1018.84 1018.96 1019.05 1019.15 1019.27 1019.34 1019.37 1019.36 1019.38 1019.35 1019.34 1019.42 1019.52 1019.57 1019.52 1019.49 1019.44 1019.52 1019.58 1019.63 1019.37 1018.65 1019.14 1019.13 1019.22 1020.67 1020.78 1020.84 1021.03 1021.09 1021.18 1021.30
1014.13 1014.99 1015.68 1016.27 1016.77 1017.15 1017.66 1018.22 1018.39 1018.56 1018.71 1018.87 1018.98 1019.09 1019.16 1019.18 1019.20 1019.27 1019.17 1019.26 1019.38 1019.40 1019.41 1019.51 1019.53 1019.51 1019.51 1019.52 1019.64 1019.73 1019.69 1019.50 1018.59 1019.19 1019.01 1019.66 1020.69 1020.93 1021.00 1021.16 1021.28 1021.35 1021.44
1014.34 1014.86 1015.42 1016.07 1016.57 1016.84 1017.19 1017.93 1018.45 1018.66 1018.80 1018.92 1018.91 1019.04 1018.87 1017.92 1018.25 1018.27 1019.12 1019.33 1019.30 1019.39 1019.36 1019.32 1019.40 1019.43 1019.33 1019.39 1019.60 1019.62 1019.40 1018.69 1018.77 1018.65 1018.78 1020.36 1020.74 1020.91 1021.14 1021.29 1021.47 1021.60 1021.67
1014.21 1014.73 1015.26 1015.67 1016.26 1016.83 1016.81 1017.59 1017.81 1017.88 1017.92 1018.01 1018.14 1018.40 1018.05 1018.40 1018.54 1018.67 1019.05 1019.40 1019.36 1019.35 1019.27 1019.22 1019.22 1019.07 1018.78 1018.16 1018.77 1019.25 1018.15 1018.69 1018.71 1018.94 1019.07 1020.56 1020.85 1020.89 1021.20 1021.35 1021.62 1021.70 1021.81
1014.12 1014.59 1015.08 1015.71 1016.30 1016.62 1016.67 1017.26 1017.35 1017.56 1017.58 1018.01 1018.49 1018.60 1018.44 1018.51 1018.44 1018.22 1018.20 1018.19 1018.38 1018.99 1018.34 1018.47 1018.42 1017.77 1018.14 1017.93 1018.14 1017.95 1018.31 1018.57 1018.46 1018.78 1019.80 1020.53 1020.84 1020.90 1021.05 1021.25 1021.44 1021.74 1021.95
1014.12 1014.63 1015.12 1015.80 1016.44 1016.67 1016.75 1017.04 1017.06 1017.23 1017.58 1017.58 1017.92 1018.63 1018.66 1018.36 1018.43 1018.37 1017.85 1018.34 1018.64 1018.25 1018.58 1018.57 1018.36 1018.71 1018.26 1018.34 1017.96 1018.13 1018.30 1018.29 1018.25 1018.53 1019.85 1020.53 1020.83 1020.88 1021.04 1021.21 1021.43 1021.57 1021.76
1014.07 1014.63 1015.14 1015.79 1016.48 1016.79 1017.08 1016.86 1016.95 1017.21 1017.51 1017.42 1017.90 1018.32 1018.37 1018.22 1018.37 1018.26 1018.79 1018.14 1018.42 1018.31 1018.62 1018.83 1018.84 1018.79 1018.54 1018.23 1018.57 1018.14 1018.06 1018.50 1018.54 1018.42 1018.95 1020.49 1020.72 1020.84 1020.95 1021.15 1021.30 1021.44 1021.67
1013.92 1014.39 1015.00 1015.70 1016.20 1016.67 1016.97 1017.21 1017.28 1017.47 1017.31 1017.67 1017.65 1017.93 1018.59 1018.41 1018.28 1018.03 1018.59 1017.97 1018.13 1018.24 1018.34 1018.91 1018.97 1018.78 1018.87 1018.81 1018.85 1018.47 1018.38 1018.44 1018.87 1018.99 1018.41 1019.83 1020.66 1020.84 1020.85 1020.97 1021.14 1021.35 1021.49
1013.64 1014.23 1014.76 1015.43 1015.84 1016.51 1016.76 1017.08 1017.30 1017.20 1017.37 1017.45 1017.57 1018.04 1018.27 1018.46 1018.24 1018.52 1017.99 1017.95 1017.95 1018.46 1019.13 1019.04 1019.06 1018.77 1018.75 1019.10 1019.21 1018.18 1018.06 1018.51 1018.97 1019.69 1018.82 1018.64 1019.86 1020.60 1020.81 1020.89 1021.00 1021.21 1021.39
1013.20 1013.93 1014.67 1014.99 1015.42 1016.15 1016.44 1016.75 1016.90 1016.94 1017.08 1017.18 1017.28 1017.47 1018.02 1018.30 1018.48 1018.39 1017.93 1017.73 1017.97 1018.74 1019.09 1018.93 1019.08 1019.15 1019.07 1019.06 1018.80 1018.44 1018.39 1018.28 1018.54 1018.99 1018.60 1018.61 1018.79 1018.86 1020.31 1020.72 1020.90 1021.09 1021.25
1012.83 1013.63 1014.32 1014.81 1015.03 1015.67 1016.17 1016.38 1016.70 1016.80 1017.12 1016.95 1016.99 1017.10 1017.45 1017.96 1018.11 1018.27 1017.64 1017.54 1018.40 1018.07 1018.26 1018.71 1019.00 1018.65 1018.84 1018.89 1018.49 1018.45 1018.51 1018.28 1018.26 1018.06 1018.44 1018.78 1018.96 1018.92 1018.63 1019.93 1020.62 1020.85 1020.93
1012.19 1013.18 1014.04 1014.49 1014.92 1015.43 1015.79 1016.29 1016.23 1016.36 1016.60 1016.64 1016.70 1016.78 1017.18 1017.63 1017.70 1017.92 1017.69 1018.17 1018.36 1018.56 1018.56 1018.91 1018.97 1018.84 1018.75 1018.72 1018.26 1018.47 1018.40 1018.32 1018.14 1018.18 1018.74 1018.27 1018.66 1018.70 1018.77 1019.45 1019.93 1020.14 1020.77
1011.55 1012.45 1013.31 1014.02 1014.51 1015.02 1015.30 1015.42 1015.70 1015.75 1016.06 1016.26 1016.31 1016.66 1016.99 1017.23 1017.29 1017.55 1017.30 1017.89 1018.05 1018.28 1018.43 1018.84 1018.99 1019.17 1018.53 1019.00 1018.56 1018.46 1018.50 1018.53 1018.48 1018.19 1017.98 1018.11 1018.86 1018.79 1019.29 1019.43 1019.76 1019.50 1020.14
1010.70 1011.52 1012.47 1013.29 1014.04 1014.57 1014.61 1014.88 1015.08 1015.36 1015.35 1015.56 1015.76 1016.10 1016.56 1016.73 1016.99 1017.15 1017.33 1017.46 1017.78 1017.50 1018.45 1018.64 1018.91 1018.43 1018.59 1018.83 1018.23 1018.05 1017.77 1018.25 1018.20 1018.29 1018.55 1018.70 1018.88 1018.80 1019.31 1019.79 1019.98 1019.99 1019.79
1009.76 1010.76 1011.68 1012.64 1013.35 1014.04 1014.21 1014.67 1015.10 1015.23 1015.32 1015.18 1015.32 1015.67 1016.04 1016.37 1016.52 1016.81 1017.06 1017.51 1017.62 1017.86 1017.58 1018.38 1018.61 1018.77 1018.05 1018.78 1018.97 1018.09 1017.66 1016.95 1017.85 1018.59 1019.11 1018.88 1019.34 1019.09 1019.33 1019.84 1019.98 1020.24 1020.30
1008.66 1009.79 1010.80 1011.92 1012.75 1013.35 1013.98 1013.92 1014.23 1014.29 1014.23 1014.39 1014.73 1014.97 1015.23 1015.79 1016.12 1016.33 1016.77 1017.15 1017.54 1016.99 1017.41 1017.88 1018.24 1018.32 1018.57 1018.12 1018.61 1018.62 1018.64 1018.26 1017.66 1017.72 1018.59 1018.96 1019.30 1019.30 1019.58 1019.33 1019.76 1020.23 1020.46
1007.67 1008.68 1009.78 1011.00 1011.91 1012.46 1013.09 1013.40 1013.65 1013.95 1013.80 1013.98 1014.26 1014.52 1015.04 1015.14 1015.72 1015.89 1016.22 1016.66 1017.03 1017.03 1017.20 1017.69 1018.10 1018.40 1018.27 1018.04 1017.97 1018.18 1018.46 1018.37 1018.44 1017.74 1017.22 1018.10 1018.66 1018.84 1019.09 1019.35 1019.25 1019.40 1020.03
1006.75 1007.79 1008.78 1009.88 1010.76 1011.70 1012.23 1012.86 1013.03 1013.12 1013.38 1013.35 1013.69 1013.95 1014.41 1014.74 1015.03 1015.53 1015.74 1016.19 1016.47 1016.54 1016.90 1017.31 1017.78 1018.18 1018.27 1018.33 1018.07 1018.02 1017.84 1017.79 1017.72 1017.84 1017.62 1017.75 1017.65 1017.92 1018.58 1018.86 1019.43 1019.38 1019.56
Wind_Speed
6 11 10 14 15 16 17 17 17 16 16 14 14 13 12 11 13 11 11 11 11 10 10 11 9 10 9 9 10 10 9 8 8 9 9 10 9 9 8 5 7 14 10
15 14 13 15 16 17 17 16 16 16 16 14 13 13 13 12 12 11 11 10 12 11 11 10 9 9 9 10 9 9 9 7 6 8 9 10 9 8 7 2 8 13 11
16 9 15 15 17 18 17 16 16 16 15 14 13 13 13 11 11 11 11 11 11 11 10 10 8 8 8 7 7 8 9 7 6 5 6 6 10 8 6 8 12 9 10
19 15 16 16 17 17 16 15 14 15 14 13 13 13 12 11 11 10 10 10 10 9 9 9 7 7 6 6 6 6 7 8 6 4 10 10 11 7 8 9 10 10 9
16 14 17 16 16 16 16 15 14 14 13 13 12 12 11 11 10 9 9 8 7 8 7 8 6 6 6 6 4 4 5 7 4 7 7 6 8 9 9 9 11 9 7
17 18 16 16 16 16 15 15 14 13 13 12 11 10 10 9 9 9 9 8 8 7 7 6 5 5 4 3 2 2 5 6 9 6 8 6 7 11 8 6 9 9 10
18 18 16 14 14 14 14 14 13 12 12 11 10 9 8 8 8 9 8 7 8 8 7 7 5 5 4 4 4 5 4 7 3 5 3 6 11 8 10 10 10 9 9
18 18 17 14 13 13 13 13 12 11 11 9 9 8 7 7 7 6 7 7 7 7 6 6 5 4 5 5 5 6 6 5 6 6 4 4 9 7 11 9 10 10 9
18 16 15 14 13 12 11 11 11 10 9 8 7 7 6 6 5 5 5 5 5 4 3 3 4 2 3 5 6 7 6 1 6 6 7 6 7 6 9 9 9 11 10
17 16 14 13 13 11 11 10 9 8 7 6 6 5 4 6 4 4 5 5 3 3 2 4 4 3 3 6 8 8 8 6 6 7 4 9 7 6 8 9 8 8 9
14 16 15 14 12 10 10 10 9 7 6 6 7 5 9 3 4 6 9 3 3 3 4 4 4 4 5 9 7 8 9 4 4 2 5 11 6 7 7 7 7 8 8
18 17 15 14 13 10 8 10 7 8 8 6 4 4 3 4 3 5 3 2 2 2 3 1 2 5 11 8 8 9 2 5 2 4 7 8 3 6 8 8 7 7 7
18 15 16 13 12 11 7 7 5 5 4 5 5 4 2 1 2 2 1 5 5 5 4 7 6 0 4 3 3 5 5 4 5 4 11 8 5 6 7 8 8 8 8
18 16 15 14 11 11 7 7 6 5 5 4 5 4 2 4 3 1 2 3 3 3 3 3 3 5 0 3 5 6 5 2 4 3 9 9 8 7 7 6 8 8 9
18 17 15 14 12 10 8 6 6 5 6 6 5 5 3 3 1 3 4 2 2 4 1 3 0 1 2 5 2 2 5 5 3 3 6 9 9 8 7 7 6 7 8
17 17 16 15 14 12 10 8 6 6 5 5 5 4 5 5 2 1 2 1 1 2 5 5 4 1 3 5 4 2 3 1 5 3 5 9 9 7 6 7 8 8 9
16 17 16 16 15 13 12 10 8 6 7 6 6 5 6 5 5 3 1 3 1 3 1 1 1 1 5 1 2 4 2 3 9 3 4 2 11 10 8 6 7 8 9
17 17 16 14 16 15 12 9 8 7 7 6 6 6 7 7 6 5 4 2 3 3 1 1 1 4 3 3 1 1 2 1 3 6 5 3 0 8 10 8 6 7 7
18 17 17 16 15 15 13 10 10 9 8 7 7 6 7 8 8 7 5 1 2 2 3 1 5 2 4 1 5 0 2 2 4 3 5 1 2 4 1 12 9 7 7
19 17 16 15 15 14 10 9 9 9 9 8 8 7 6 7 9 8 5 3 4 3 2 1 5 2 2 3 4 3 2 2 2 3 5 8 6 2 3 1 9 8 9
19 19 19 18 16 13 12 11 10 10 9 9 8 9 7 7 8 8 7 4 5 4 3 3 3 4 2 2 3 4 4 6 4 4 4 3 5 3 4 4 2 6 8
21 20 19 19 17 15 12 10 9 9 10 10 9 9 9 7 7 7 7 7 5 1 4 4 4 1 0 2 2 2 6 6 5 3 1 3 5 4 6 4 4 1 1
23 22 20 19 18 16 15 10 9 9 9 9 10 9 10 10 9 9 7 5 7 5 4 4 5 4 0 1 3 4 3 2 6 6 5 3 3 3 4 5 5 5 3
23 22 21 19 19 17 17 13 13 12 11 11 10 10 9 11 10 9 7 7 8 6 3 4 4 4 4 3 3 4 4 6 4 7 5 5 4 5 2 3 6 5 4
24 22 21 20 19 18 17 16 13 14 12 9 10 9 10 9 12 11 10 9 9 8 7 5 5 6 4 5 4 3 4 4 3 5 4 7 6 5 5 5 4 5 5
22 21 20 20 19 19 19 20 16 15 14 12 11 9 9 9 10 12 12 10 9 9 7 7 7 7 6 4 4 4 5 5 5 5 5 2 4 7 5 5 5 4 5
Wind_Direction
154 156 154 133 127 123 118 120 122 125 126 123 122 118 114 104 92 96 92 88 91 92 94 96 99 98 94 95 94 94 95 98 105 111 117 116 114 106 111 140 191 105 104
143 138 140 134 132 123 121 123 122 123 122 123 124 115 108 102 98 96 92 89 82 85 97 101 104 113 111 105 102 100 95 101 110 123 126 112 107 110 107 72 35 97 103
133 145 144 136 130 124 122 122 122 122 123 122 117 111 101 100 89 83 81 73 74 86 85 96 100 102 109 105 107 97 93 101 119 112 216 115 120 123 120 99 95 101 95
142 140 137 136 130 124 123 122 122 125 122 118 110 108 104 96 89 88 84 81 80 78 84 87 91 95 102 103 95 94 101 105 116 181 231 143 117 117 110 103 106 108 110
138 148 129 134 126 130 127 124 125 124 120 116 112 108 103 98 97 91 84 79 88 96 94 91 87 83 85 87 95 105 114 111 143 231 37 59 104 107 107 113 132 135 158
143 140 139 130 134 132 129 127 127 125 121 114 112 109 105 102 96 83 77 84 95 93 92 91 88 77 78 91 109 167 157 156 213 80 137 100 57 112 131 107 79 105 110
147 134 140 137 136 131 133 129 125 120 118 117 114 114 110 101 87 81 84 82 85 85 90 88 83 97 104 92 94 80 126 175 162 115 101 112 97 128 118 114 104 108 112
145 149 139 140 137 138 134 130 126 128 122 118 121 119 112 104 93 79 74 75 75 79 83 88 85 65 68 76 85 86 95 191 161 115 96 114 104 131 117 112 112 112 110
150 146 152 152 143 140 138 133 131 125 122 129 129 123 119 112 100 84 72 68 77 75 84 94 93 85 83 101 103 98 99 345 122 89 138 141 107 126 123 117 117 119 110
155 150 156 157 159 161 154 146 135 134 138 143 137 140 146 147 146 147 173 97 74 73 74 83 104 105 84 113 117 116 134 203 96 142 125 90 114 150 134 129 123 119 121
165 166 165 166 165 169 159 143 153 156 160 166 174 170 202 156 126 162 68 40 86 78 73 81 105 125 155 137 129 146 199 84 170 99 122 109 131 149 135 145 136 130 125
174 172 172 176 165 171 172 149 176 163 182 187 178 167 221 76 50 333 99 120 103 81 114 113 147 207 213 167 133 195 129 90 158 127 87 118 151 148 150 148 151 152 144
172 178 175 181 171 183 170 175 177 182 175 174 194 217 97 314 118 228 156 175 164 181 208 193 190 266 48 58 87 65 103 166 136 134 101 147 181 182 162 156 158 159 162
176 183 178 177 182 194 173 189 183 187 190 207 179 196 207 224 170 270 355 90 211 63 59 342 69 17 162 130 46 63 88 86 99 131 124 164 189 191 180 188 177 166 173
180 183 182 179 185 192 195 186 210 207 197 204 194 183 248 257 208 270 31 285 4 122 179 110 63 253 338 71 258 71 64 91 98 116 110 171 192 202 203 199 189 185 181
184 185 183 188 187 193 198 198 201 212 204 227 214 202 207 260 216 105 233 207 121 355 31 11 18 355 15 16 10 56 42 60 71 328 114 147 187 198 198 199 201 191 195
188 186 191 192 190 194 197 197 209 204 212 216 221 208 226 232 206 296 256 272 10 73 69 108 270 211 141 111 324 193 310 139 119 218 281 86 151 192 200 202 205 203 204
193 191 197 197 191 193 197 195 212 210 222 216 219 216 209 230 241 242 237 241 51 159 169 234 286 236 56 228 99 323 359 215 133 164 226 263 63 140 171 189 199 203 213
195 192 197 201 200 195 197 201 208 204 219 223 221 221 201 227 226 245 252 223 210 291 161 64 238 14 138 139 206 277 111 170 169 136 93 182 64 243 129 163 183 195 209
192 197 200 201 207 198 200 205 210 210 216 219 218 225 222 235 239 230 238 252 248 124 204 149 310 85 344 4 343 79 80 154 168 104 176 170 149 275 215 118 177 189 191
199 196 198 203 199 200 200 200 205 210 206 214 218 223 233 233 229 222 244 184 218 206 284 203 193 207 184 88 214 146 133 170 183 153 153 75 114 124 79 89 228 195 156
199 201 200 204 202 205 201 207 209 211 209 212 213 216 220 222 217 226 234 238 186 214 207 213 220 252 348 105 332 226 170 157 155 137 23 69 18 124 113 87 79 293 317
199 201 202 202 204 206 215 201 202 219 229 209 219 214 208 218 218 221 228 219 218 252 191 206 204 237 241 175 289 304 178 146 162 168 178 139 172 120 105 119 102 109 101
201 201 203 201 204 204 205 203 205 208 210 216 214 215 221 214 224 227 227 215 220 231 265 205 215 253 249 193 184 221 319 357 230 157 187 177 197 190 140 164 127 117 137
200 201 201 201 204 208 199 219 199 217 213 218 221 220 213 215 223 230 228 217 215 223 197 241 192 223 188 286 221 175 210 221 241 301 185 176 206 206 187 211 164 152 156
201 201 199 199 203 203 202 204 213 209 220 213 212 214 224 217 213 221 227 225 221 224 217 206 202 205 234 236 259 231 217 210 200 220 238 239 252 172 206 197 196 222 178